SCP
0 0 0 0 0 0 0 0 0 0 0 0 0 0 0 0 0 0 0 0 0 0 0 0 0 0 0 0 0 0 0 0 0 0 0 0 0 0 0 0 0 0 0 0 -0
0 0 0 0 0 0 0 0 0 0 0 0 0 0 0 0 0 0 0 0 0 0 0 0 -0 -0 0 0 0 0 0 0 0 0 0 0 0 0 0 0 0 0 0 -0 -0
0 0 0 0 0 0 0 0 0 0 0 0 0 0 0 0 0 0 0 0 0 0 0 0 0 -0 0 0 0 0 0 0 0 0 0 0 0 0 0 0 0 0 0 -0 -0
0 0 0 0 0 0 0 0 0 0 0 0 0 0 0 0 0 0 0 0 0 0 0 0 0 0 0 0 0 0 0 0 0 0 0 0 0 0 0 0 -0 0 -0 0 -0
0 0 0 0 0 0 0 0 0 0 0 0 0 0 0 0 0 0 0 0 0 0 0 0 0 0 0 0 0 0 0 0 0 0 0 0 0 0 0 0 0 0 0 0 0
0 0 0 0 0 0 0 0 0 0 0 0 0 0 0 0 0 0 0 0 0 0 0 0 0 0 0 0 0 0 0 0 0 0 0 0 0 0 0 0 0 0 0 0 0
0 0 0 0 0 0 0 0 0 0 0 0 0 0 0 0 0 0 0 0 0 0 0 0 0 0 0 0 0 0 0 0 0 0 0 0 0 0 0 0 0 0 0 0 0
0 0 0 0 0 0 0 0 0 0 0 0 0 0 0 0 0 0 0 0 0 0 0 0 0 0 0 0 0 0 0 0 0 0 0 0 0 0 0 0 0 0 0 0 0
-0 0 0 0 0 0 0 0 0 0 0 0 0 0 0 0 0 0 0 0 0 0 0 0 0 0 0 0 0 0 0 0 0 0 0 0 0 0 0 0 0 0 0 0 0
-0 0 0 0 0 0 0 0 0 0 0 0 0 0 0 0 0 0 0 0 0 0 0 0 0 0 0 0 0 0 0 0 0 0 0 0 0 0 0 0 0 0 0 0 0
0 -0 0 0 0 0 0 0 0 0 0 0 0 0 0 0 0 0 0 0 0 0 0 0 0 0 0 0 0 0 0 0 0 0 0 0 0 0 0 0 0 0 0 0 0
0 0 0 0 0 0 0 0 0 0 0 0 0 0 0 0 0 0 0 0 0 0 0 0 0 0 0 0 0 0 0 0 0 0 0 0 0 0 0 0 0 0 0 0 0
0 0 0 0 0 0 0 0 0 0 0 0 0 0 0 0 0 0 0 0 0 0 0 0 0 0 0 0 0 0 0 0 0 0 0 0 0 0 0 0 0 0 0 0 0
-0 -0 0 0 0 0 0 0 0 0 0 0 0 0 0 0 0 0 0 0 0 0 0 0 0 0 0 0 0 0 0 0 0 0 0 0 0 0 0 0 0 0 0 0 0
-0 -0 -0 0 0 0 0 0 0 0 0 0 0 0 0 0 0 0 0 0 0 0 0 0 0 0 0 0 0 0 0 0 0 0 0 0 0 0 0 0 0 0 0 0 0
-0 -0 -0 0 0 0 0 0 0 0 0 0 0 0 0 0 0 0 0 0 0 0 0 0 0 0 0 0 0 0 0 0 0 0 0 0 0 0 0 0 0 0 0 0 0
-0 -0 0 0 0 0 0 0 0 0 0 0 0 0 0 0 0 0 0 0 0 0 0 0 0 0 0 0 0 0 0 0 0 0 0 0 0 0 0 0 0 0 0 0 0
-0 -0 -0 0 0 0 0 0 0 0 0 0 -0 0 0 0 0 0 0 0 0 0 0 0 0 0 0 0 0 0 0 0 0 0 0 0 0 0 0 0 0 0 0 0 0
-0 0 0 0 0 0 0 0 0 0 0 0 0 -0 0 0 0 0 0 0 0 0 0 0 0 0 0 0 0 0 0 0 0 0 0 0 0 0 0 0 0 0 0 0 0
0 0 0 0 0 0 0 0 0 0 0 -0 0 -0 0 0 -0 0 0 0 0 0 0 0 0 0 0 0 0 0 0 0 0 0 0 0 0 0 0 0 0 0 0 0 0
-0 0 0 0 0 0 0 0 0 0 0 -0 0 -0 0 0 0 0 0 0 0 0 0 0 0 0 0 0 0 0 0 0 0 0 0 0 0 0 0 0 0 0 0 0 0
0 0 0 0 0 0 0 0 0 -0 -0 -0 -0 0 0 0 0 0 0 0 0 0 0 0 0 0 0 0 0 0 0 0 0 0 0 0 0 0 0 0 0 0 0 0 0
0 0 0 0 0 0 0 -0 -0 -0 -0 -0 -0 -0 0 0 0 0 0 0 0 0 0 0 0 0 0 0 0 0 0 0 0 0 0 0 0 0 0 0 0 0 0 0 0
0 0 0 0 0 -0 0 0 0 0 0 -0 -0 0 0 0 0 0 0 0 0 0 0 0 0 0 0 0 0 0 0 0 0 0 0 0 0 0 0 0 0 0 0 0 0
0 0 0 0 0 0 0 0 0 -0 -0 -0 -0 0 0 0 0 0 0 0 0 0 0 0 0 0 0 0 0 0 0 0 0 0 0 0 0 0 0 0 0 0 0 0 0
0 0 0 0 -0 0 0 0 0 0 -0 0 -0 0 0 0 0 0 0 0 0 0 0 0 0 0 0 0 0 0 0 0 0 0 0 0 0 0 0 0 0 0 0 0 0
0 -0 0 0 -0 0 0 0 0 0 0 0 -0 -0 0 0 0 0 0 0 0 0 0 0 0 0 0 0 0 0 0 0 0 0 0 0 0 0 0 0 0 0 0 0 0
Wind_Speed_500mb
23 21 21 19 20 19 21 25 33 33 24 24 26 25 27 26 27 32 41 45 35 32 50 46 60 51 36 22 11 4 5 4 5 5 5 6 8 15 9 29 9 19 11 11 50
26 23 22 18 18 19 15 19 28 28 21 19 22 24 25 28 27 41 47 37 30 33 44 39 47 50 29 18 11 4 6 13 9 6 8 6 8 25 13 18 5 15 17 34 55
29 26 23 20 19 20 15 13 21 31 25 18 15 19 21 23 22 39 41 37 25 36 26 38 36 38 27 22 13 4 8 6 19 23 10 9 8 15 26 7 20 33 41 60 62
31 28 25 21 19 18 16 13 14 21 33 26 17 17 17 21 15 11 28 30 45 36 28 26 23 25 16 12 18 6 13 11 17 25 14 6 16 10 32 10 24 33 40 66 66
35 30 27 22 17 17 16 15 13 14 22 32 22 16 15 25 31 20 7 29 33 37 37 35 31 19 10 17 12 8 4 18 17 25 26 19 18 12 22 3 20 40 61 63 62
36 31 29 22 18 13 14 16 14 15 14 23 23 19 17 15 26 31 16 25 33 32 37 50 39 22 9 14 17 10 5 26 19 21 17 7 8 12 16 16 38 49 64 58 59
40 35 29 26 19 16 13 14 14 16 11 14 18 19 20 29 13 31 29 22 28 34 36 41 29 24 19 6 9 7 7 13 8 9 9 6 4 11 15 38 52 57 57 54 53
43 38 34 28 21 18 13 13 12 15 11 10 14 17 14 27 39 20 28 35 36 33 31 33 38 37 15 18 4 8 5 2 4 12 5 10 16 3 26 53 54 58 54 52 54
45 42 34 32 24 17 12 10 11 15 11 7 12 13 13 17 34 39 28 41 39 33 32 34 36 16 15 15 6 9 9 10 5 5 3 8 10 8 34 50 53 57 53 51 52
47 42 40 31 25 17 10 8 9 12 8 5 11 5 26 13 21 35 35 33 32 37 35 23 13 8 7 14 30 11 6 10 16 1 4 9 9 4 38 48 54 53 50 51 53
47 42 38 32 27 18 13 7 4 5 17 12 5 7 2 31 19 28 37 34 26 33 10 15 9 18 25 23 3 14 15 15 4 3 2 9 6 6 14 32 33 46 50 52 48
47 42 36 33 26 22 17 8 7 2 10 26 34 23 32 10 10 31 30 27 24 21 14 9 18 12 18 15 6 20 23 19 5 7 6 3 7 1 6 16 45 50 48 50 47
43 40 35 32 28 21 16 12 7 4 2 12 25 36 34 23 17 23 24 33 8 23 28 11 12 20 18 18 19 10 32 20 11 6 4 6 4 3 4 6 14 34 41 43 46
42 39 34 34 24 21 15 14 9 3 9 10 7 14 28 21 15 53 38 26 17 22 33 9 8 22 21 18 17 16 9 16 14 12 21 3 15 9 3 8 11 32 45 49 44
45 42 42 34 18 23 12 14 9 4 7 6 5 6 18 28 4 9 46 34 16 18 6 12 20 28 26 15 15 5 26 17 9 8 5 5 7 9 7 12 10 16 34 43 38
43 41 41 26 25 20 17 15 15 11 11 10 0 8 12 19 9 5 27 38 35 8 4 3 26 15 7 20 8 21 19 18 10 6 4 9 7 7 16 12 6 5 30 36 35
47 47 33 27 25 23 19 22 9 7 8 7 3 5 12 12 12 4 17 21 7 13 10 7 25 9 16 23 23 24 19 6 5 6 3 11 7 8 11 5 5 23 32 32 39
49 38 32 20 18 17 28 9 4 8 11 3 6 6 8 17 14 3 20 27 16 3 7 10 9 20 10 18 18 33 9 8 8 8 6 8 8 8 12 13 9 24 36 36 50
42 33 20 16 14 25 12 6 14 12 5 5 7 5 8 12 9 20 22 38 26 17 10 9 4 3 2 9 24 9 5 3 11 4 6 7 7 4 11 9 26 43 49 44 26
29 20 14 14 15 24 4 10 8 10 4 2 9 12 10 12 18 9 30 35 18 6 12 7 10 4 2 18 8 6 9 7 3 7 3 3 5 6 9 20 21 32 46 51 54
13 7 8 10 14 7 6 13 10 11 6 9 5 5 15 12 25 18 20 5 17 26 4 13 5 5 4 2 14 10 4 2 8 4 9 8 7 3 9 15 26 31 50 62 59
4 4 13 16 3 4 4 9 7 10 10 18 8 13 9 7 10 13 14 8 39 26 12 1 9 8 5 2 1 0 13 8 6 5 3 3 3 3 8 11 20 31 54 57 55
4 7 12 14 3 5 10 8 9 6 8 7 8 3 6 6 8 11 15 4 40 19 17 8 3 8 7 8 7 6 6 8 10 5 2 6 5 6 10 11 28 43 53 57 54
5 2 5 6 3 8 4 6 5 12 10 11 10 11 8 7 2 13 8 5 12 16 25 13 8 3 13 8 11 9 11 7 10 7 7 6 6 1 8 14 27 33 51 58 50
3 2 4 3 4 4 5 4 4 5 10 9 6 13 7 2 4 6 9 13 13 10 10 7 7 6 8 10 6 10 20 15 9 10 9 11 15 11 10 13 30 36 41 44 44
2 8 6 2 4 5 4 3 8 7 7 8 7 18 23 10 8 2 2 6 6 8 7 4 6 5 13 18 11 8 11 15 9 9 11 11 6 10 21 19 19 20 25 33 36
1 8 1 5 5 5 4 6 4 3 1 7 13 9 22 16 19 32 30 29 18 10 6 8 11 6 3 10 10 7 12 11 8 7 15 11 8 14 6 7 5 11 14 16 26
Wind_Direction_500mb
274 278 269 251 258 252 245 236 230 241 253 248 251 236 238 248 239 240 240 246 243 228 225 241 230 244 267 309 307 252 65 231 245 186 311 160 134 162 148 148 167 187 180 209 169
265 260 274 260 248 258 254 238 227 229 230 238 246 248 232 240 240 242 242 244 228 223 229 240 233 240 262 268 297 163 151 215 239 345 318 273 217 163 144 151 163 174 172 164 165
258 264 254 262 243 246 253 245 236 227 232 234 243 248 236 240 242 248 243 237 226 225 227 219 231 238 235 226 231 200 204 242 297 305 308 281 196 186 142 225 200 178 166 167 167
250 250 258 248 253 243 241 250 252 239 231 236 236 245 232 208 216 218 236 230 218 227 230 194 173 170 198 184 197 236 251 270 287 296 324 273 189 205 169 214 220 193 179 170 173
249 241 246 249 249 249 234 237 257 266 234 234 243 253 242 219 233 258 267 202 208 220 222 209 179 165 194 182 179 193 278 294 276 296 291 276 242 198 185 230 170 168 170 174 178
247 243 237 247 243 251 236 231 249 271 249 234 239 253 242 238 228 248 256 214 213 205 212 217 224 177 231 202 186 145 242 276 280 280 277 252 239 184 197 183 164 167 173 179 184
240 236 233 236 239 240 236 232 244 266 272 240 237 246 251 230 231 236 243 219 209 207 214 209 193 182 200 152 183 148 333 317 234 236 255 222 268 228 177 174 167 173 178 184 188
237 232 228 229 234 231 228 222 243 270 277 264 232 244 254 247 238 240 219 211 194 200 209 203 188 193 191 132 92 155 143 228 317 185 228 159 242 215 175 172 174 178 183 188 191
234 227 224 223 230 231 227 220 234 259 272 263 230 205 256 239 248 237 226 207 194 190 180 164 170 170 149 135 121 225 183 166 299 39 217 157 241 166 180 183 179 182 187 194 194
223 224 217 219 220 226 226 225 243 252 240 215 190 208 249 245 250 233 230 221 186 164 151 157 163 174 160 177 210 177 179 188 197 275 286 135 278 310 186 191 188 187 190 196 197
212 216 211 212 209 207 207 206 234 240 221 207 216 218 295 220 249 236 230 205 180 163 174 192 179 194 188 194 219 191 198 213 146 51 191 199 198 259 201 200 192 195 192 196 199
203 208 200 201 194 193 191 197 192 207 295 249 245 251 252 261 272 245 224 210 174 191 125 172 217 191 163 158 136 164 190 201 124 333 153 234 191 207 196 218 206 201 196 197 201
192 193 190 187 185 184 188 200 187 291 268 275 230 233 232 237 240 254 226 233 262 198 182 181 169 154 151 167 160 187 189 177 193 161 63 118 298 150 218 176 192 210 203 196 195
177 179 177 178 171 177 185 199 218 231 60 270 221 240 212 207 266 244 243 233 198 207 167 213 166 158 154 177 167 190 158 133 136 179 210 143 238 252 160 230 154 138 148 157 164
170 173 178 167 165 162 170 177 174 119 29 260 207 194 201 184 72 247 227 211 227 218 150 166 169 163 162 165 152 157 133 105 79 89 130 155 196 188 131 230 181 157 139 146 150
157 156 152 155 157 155 155 157 128 47 256 328 317 205 171 225 233 280 189 207 210 247 158 233 174 153 151 141 123 118 104 64 51 75 221 177 181 230 187 170 108 159 149 149 148
144 145 154 154 155 159 160 136 48 130 323 301 336 313 237 181 217 291 217 198 194 152 172 313 163 120 139 133 135 121 121 131 152 183 221 151 134 248 272 237 68 176 133 158 141
141 149 149 155 156 161 146 59 121 236 228 213 256 280 255 177 218 178 233 207 195 124 130 173 155 173 171 175 167 159 171 144 154 170 142 167 206 245 207 253 188 157 159 144 134
142 145 139 129 143 156 150 73 208 205 242 260 264 182 244 213 185 180 257 208 188 186 145 152 154 101 237 129 153 156 143 53 106 42 99 186 255 165 129 155 185 189 187 170 179
143 139 104 134 139 167 114 248 236 220 281 231 237 160 242 191 177 176 204 186 173 174 174 158 109 56 222 106 34 155 137 111 7 125 188 280 279 208 159 156 161 158 169 171 158
139 128 150 154 161 177 182 232 265 253 208 228 265 256 243 181 193 163 207 143 147 181 2 178 133 123 220 226 143 137 191 123 115 147 156 140 245 320 177 182 164 163 167 161 156
269 60 160 173 123 29 161 209 290 269 256 248 253 263 237 196 154 165 227 181 160 140 172 67 119 113 83 4 182 266 160 151 119 227 34 115 220 348 286 216 176 166 169 165 157
221 146 175 185 155 279 291 270 248 276 244 259 256 227 219 257 134 176 204 99 170 140 160 197 85 103 56 28 343 151 140 125 108 70 170 120 245 355 64 143 181 176 178 170 165
177 63 178 156 147 156 229 254 265 258 273 270 276 310 258 219 238 166 138 106 111 125 158 111 79 9 179 155 135 155 139 133 106 106 176 193 152 314 50 110 136 163 179 178 179
183 250 193 219 282 235 247 231 270 7 245 300 268 327 296 14 61 87 102 115 74 82 85 94 119 88 23 23 89 137 159 155 145 152 160 192 163 181 149 125 135 143 161 179 192
231 153 162 150 289 291 309 328 14 349 352 336 25 342 27 54 349 117 100 90 134 38 85 55 139 107 26 6 55 79 128 127 115 127 79 115 113 159 150 125 137 158 182 198 205
222 128 189 356 334 86 265 295 342 310 62 48 304 333 28 4 33 45 70 77 80 107 103 89 128 89 300 347 57 4 211 154 142 165 140 158 203 147 170 150 194 184 188 213 215
Wind_Speed_850mb
23 21 21 19 20 19 21 25 33 33 24 24 26 25 27 26 27 32 41 45 35 32 50 46 60 51 36 22 11 4 5 4 5 5 5 6 8 15 9 29 9 19 11 11 50
26 23 22 18 18 19 15 19 28 28 21 19 22 24 25 28 27 41 47 37 30 33 44 39 47 50 29 18 11 4 6 13 9 6 8 6 8 25 13 18 5 15 17 34 55
29 26 23 20 19 20 15 13 21 31 25 18 15 19 21 23 22 39 41 37 25 36 26 38 36 38 27 22 13 4 8 6 19 23 10 9 8 15 26 7 20 33 41 60 62
31 28 25 21 19 18 16 13 14 21 33 26 17 17 17 21 15 11 28 30 45 36 28 26 23 25 16 12 18 6 13 11 17 25 14 6 16 10 32 10 24 33 40 66 66
35 30 27 22 17 17 16 15 13 14 22 32 22 16 15 25 31 20 7 29 33 37 37 35 31 19 10 17 12 8 4 18 17 25 26 19 18 12 22 3 20 40 61 63 62
36 31 29 22 18 13 14 16 14 15 14 23 23 19 17 15 26 31 16 25 33 32 37 50 39 22 9 14 17 10 5 26 19 21 17 7 8 12 16 16 38 49 64 58 59
40 35 29 26 19 16 13 14 14 16 11 14 18 19 20 29 13 31 29 22 28 34 36 41 29 24 19 6 9 7 7 13 8 9 9 6 4 11 15 38 52 57 57 54 53
43 38 34 28 21 18 13 13 12 15 11 10 14 17 14 27 39 20 28 35 36 33 31 33 38 37 15 18 4 8 5 2 4 12 5 10 16 3 26 53 54 58 54 52 54
45 42 34 32 24 17 12 10 11 15 11 7 12 13 13 17 34 39 28 41 39 33 32 34 36 16 15 15 6 9 9 10 5 5 3 8 10 8 34 50 53 57 53 51 52
47 42 40 31 25 17 10 8 9 12 8 5 11 5 26 13 21 35 35 33 32 37 35 23 13 8 7 14 30 11 6 10 16 1 4 9 9 4 38 48 54 53 50 51 53
47 42 38 32 27 18 13 7 4 5 17 12 5 7 2 31 19 28 37 34 26 33 10 15 9 18 25 23 3 14 15 15 4 3 2 9 6 6 14 32 33 46 50 52 48
47 42 36 33 26 22 17 8 7 2 10 26 34 23 32 10 10 31 30 27 24 21 14 9 18 12 18 15 6 20 23 19 5 7 6 3 7 1 6 16 45 50 48 50 47
43 40 35 32 28 21 16 12 7 4 2 12 25 36 34 23 17 23 24 33 8 23 28 11 12 20 18 18 19 10 32 20 11 6 4 6 4 3 4 6 14 34 41 43 46
42 39 34 34 24 21 15 14 9 3 9 10 7 14 28 21 15 53 38 26 17 22 33 9 8 22 21 18 17 16 9 16 14 12 21 3 15 9 3 8 11 32 45 49 44
45 42 42 34 18 23 12 14 9 4 7 6 5 6 18 28 4 9 46 34 16 18 6 12 20 28 26 15 15 5 26 17 9 8 5 5 7 9 7 12 10 16 34 43 38
43 41 41 26 25 20 17 15 15 11 11 10 0 8 12 19 9 5 27 38 35 8 4 3 26 15 7 20 8 21 19 18 10 6 4 9 7 7 16 12 6 5 30 36 35
47 47 33 27 25 23 19 22 9 7 8 7 3 5 12 12 12 4 17 21 7 13 10 7 25 9 16 23 23 24 19 6 5 6 3 11 7 8 11 5 5 23 32 32 39
49 38 32 20 18 17 28 9 4 8 11 3 6 6 8 17 14 3 20 27 16 3 7 10 9 20 10 18 18 33 9 8 8 8 6 8 8 8 12 13 9 24 36 36 50
42 33 20 16 14 25 12 6 14 12 5 5 7 5 8 12 9 20 22 38 26 17 10 9 4 3 2 9 24 9 5 3 11 4 6 7 7 4 11 9 26 43 49 44 26
29 20 14 14 15 24 4 10 8 10 4 2 9 12 10 12 18 9 30 35 18 6 12 7 10 4 2 18 8 6 9 7 3 7 3 3 5 6 9 20 21 32 46 51 54
13 7 8 10 14 7 6 13 10 11 6 9 5 5 15 12 25 18 20 5 17 26 4 13 5 5 4 2 14 10 4 2 8 4 9 8 7 3 9 15 26 31 50 62 59
4 4 13 16 3 4 4 9 7 10 10 18 8 13 9 7 10 13 14 8 39 26 12 1 9 8 5 2 1 0 13 8 6 5 3 3 3 3 8 11 20 31 54 57 55
4 7 12 14 3 5 10 8 9 6 8 7 8 3 6 6 8 11 15 4 40 19 17 8 3 8 7 8 7 6 6 8 10 5 2 6 5 6 10 11 28 43 53 57 54
5 2 5 6 3 8 4 6 5 12 10 11 10 11 8 7 2 13 8 5 12 16 25 13 8 3 13 8 11 9 11 7 10 7 7 6 6 1 8 14 27 33 51 58 50
3 2 4 3 4 4 5 4 4 5 10 9 6 13 7 2 4 6 9 13 13 10 10 7 7 6 8 10 6 10 20 15 9 10 9 11 15 11 10 13 30 36 41 44 44
2 8 6 2 4 5 4 3 8 7 7 8 7 18 23 10 8 2 2 6 6 8 7 4 6 5 13 18 11 8 11 15 9 9 11 11 6 10 21 19 19 20 25 33 36
1 8 1 5 5 5 4 6 4 3 1 7 13 9 22 16 19 32 30 29 18 10 6 8 11 6 3 10 10 7 12 11 8 7 15 11 8 14 6 7 5 11 14 16 26
Wind_Direction_850mb
274 278 269 251 258 252 245 236 230 241 253 248 251 236 238 248 239 240 240 246 243 228 225 241 230 244 267 309 307 252 65 231 245 186 311 160 134 162 148 148 167 187 180 209 169
265 260 274 260 248 258 254 238 227 229 230 238 246 248 232 240 240 242 242 244 228 223 229 240 233 240 262 268 297 163 151 215 239 345 318 273 217 163 144 151 163 174 172 164 165
258 264 254 262 243 246 253 245 236 227 232 234 243 248 236 240 242 248 243 237 226 225 227 219 231 238 235 226 231 200 204 242 297 305 308 281 196 186 142 225 200 178 166 167 167
250 250 258 248 253 243 241 250 252 239 231 236 236 245 232 208 216 218 236 230 218 227 230 194 173 170 198 184 197 236 251 270 287 296 324 273 189 205 169 214 220 193 179 170 173
249 241 246 249 249 249 234 237 257 266 234 234 243 253 242 219 233 258 267 202 208 220 222 209 179 165 194 182 179 193 278 294 276 296 291 276 242 198 185 230 170 168 170 174 178
247 243 237 247 243 251 236 231 249 271 249 234 239 253 242 238 228 248 256 214 213 205 212 217 224 177 231 202 186 145 242 276 280 280 277 252 239 184 197 183 164 167 173 179 184
240 236 233 236 239 240 236 232 244 266 272 240 237 246 251 230 231 236 243 219 209 207 214 209 193 182 200 152 183 148 333 317 234 236 255 222 268 228 177 174 167 173 178 184 188
237 232 228 229 234 231 228 222 243 270 277 264 232 244 254 247 238 240 219 211 194 200 209 203 188 193 191 132 92 155 143 228 317 185 228 159 242 215 175 172 174 178 183 188 191
234 227 224 223 230 231 227 220 234 259 272 263 230 205 256 239 248 237 226 207 194 190 180 164 170 170 149 135 121 225 183 166 299 39 217 157 241 166 180 183 179 182 187 194 194
223 224 217 219 220 226 226 225 243 252 240 215 190 208 249 245 250 233 230 221 186 164 151 157 163 174 160 177 210 177 179 188 197 275 286 135 278 310 186 191 188 187 190 196 197
212 216 211 212 209 207 207 206 234 240 221 207 216 218 295 220 249 236 230 205 180 163 174 192 179 194 188 194 219 191 198 213 146 51 191 199 198 259 201 200 192 195 192 196 199
203 208 200 201 194 193 191 197 192 207 295 249 245 251 252 261 272 245 224 210 174 191 125 172 217 191 163 158 136 164 190 201 124 333 153 234 191 207 196 218 206 201 196 197 201
192 193 190 187 185 184 188 200 187 291 268 275 230 233 232 237 240 254 226 233 262 198 182 181 169 154 151 167 160 187 189 177 193 161 63 118 298 150 218 176 192 210 203 196 195
177 179 177 178 171 177 185 199 218 231 60 270 221 240 212 207 266 244 243 233 198 207 167 213 166 158 154 177 167 190 158 133 136 179 210 143 238 252 160 230 154 138 148 157 164
170 173 178 167 165 162 170 177 174 119 29 260 207 194 201 184 72 247 227 211 227 218 150 166 169 163 162 165 152 157 133 105 79 89 130 155 196 188 131 230 181 157 139 146 150
157 156 152 155 157 155 155 157 128 47 256 328 317 205 171 225 233 280 189 207 210 247 158 233 174 153 151 141 123 118 104 64 51 75 221 177 181 230 187 170 108 159 149 149 148
144 145 154 154 155 159 160 136 48 130 323 301 336 313 237 181 217 291 217 198 194 152 172 313 163 120 139 133 135 121 121 131 152 183 221 151 134 248 272 237 68 176 133 158 141
141 149 149 155 156 161 146 59 121 236 228 213 256 280 255 177 218 178 233 207 195 124 130 173 155 173 171 175 167 159 171 144 154 170 142 167 206 245 207 253 188 157 159 144 134
142 145 139 129 143 156 150 73 208 205 242 260 264 182 244 213 185 180 257 208 188 186 145 152 154 101 237 129 153 156 143 53 106 42 99 186 255 165 129 155 185 189 187 170 179
143 139 104 134 139 167 114 248 236 220 281 231 237 160 242 191 177 176 204 186 173 174 174 158 109 56 222 106 34 155 137 111 7 125 188 280 279 208 159 156 161 158 169 171 158
139 128 150 154 161 177 182 232 265 253 208 228 265 256 243 181 193 163 207 143 147 181 2 178 133 123 220 226 143 137 191 123 115 147 156 140 245 320 177 182 164 163 167 161 156
269 60 160 173 123 29 161 209 290 269 256 248 253 263 237 196 154 165 227 181 160 140 172 67 119 113 83 4 182 266 160 151 119 227 34 115 220 348 286 216 176 166 169 165 157
221 146 175 185 155 279 291 270 248 276 244 259 256 227 219 257 134 176 204 99 170 140 160 197 85 103 56 28 343 151 140 125 108 70 170 120 245 355 64 143 181 176 178 170 165
177 63 178 156 147 156 229 254 265 258 273 270 276 310 258 219 238 166 138 106 111 125 158 111 79 9 179 155 135 155 139 133 106 106 176 193 152 314 50 110 136 163 179 178 179
183 250 193 219 282 235 247 231 270 7 245 300 268 327 296 14 61 87 102 115 74 82 85 94 119 88 23 23 89 137 159 155 145 152 160 192 163 181 149 125 135 143 161 179 192
231 153 162 150 289 291 309 328 14 349 352 336 25 342 27 54 349 117 100 90 134 38 85 55 139 107 26 6 55 79 128 127 115 127 79 115 113 159 150 125 137 158 182 198 205
222 128 189 356 334 86 265 295 342 310 62 48 304 333 28 4 33 45 70 77 80 107 103 89 128 89 300 347 57 4 211 154 142 165 140 158 203 147 170 150 194 184 188 213 215